Location: Treviso
(45.6669°N, 12.2430°E)
Time: 15:18:40
(UTC+01:00)

Envisat - Visible Passes

Search period start: 30 November 2022 00:00
Search period end: 10 December 2022 00:00
Orbit: 763 x 765 km, 98.2° (Epoch: 29 November)

Date Brightness Start Highest point End Pass type
(mag) Time Alt. Az. Time Alt. Az. Time Alt. Az.
30 Nov 5.3 03:54:33 10° NNE 03:55:54 18° NE 03:55:54 18° NE visible
30 Nov 4.4 05:33:52 10° N 05:36:04 21° NNW 05:36:04 21° NNW visible
01 Dec 4.5 04:56:26 10° N 04:58:26 24° N 04:58:26 24° N visible
02 Dec 5.0 04:19:24 10° NNE 04:20:50 19° NNE 04:20:50 19° NNE visible
02 Dec 4.7 05:59:33 10° NNW 06:01:00 15° NNW 06:01:00 15° NNW visible
03 Dec 5.7 03:42:47 10° NNE 03:43:13 12° NE 03:43:13 12° NE visible
03 Dec 4.6 05:21:43 10° N 05:23:24 19° NNW 05:23:24 19° NNW visible
04 Dec 4.9 04:44:25 10° N 04:45:48 19° N 04:45:48 19° N visible
05 Dec 5.4 04:07:30 10° NNE 04:08:12 14° NNE 04:08:12 14° NNE visible
05 Dec 4.8 05:47:15 10° NNW 05:48:23 15° NNW 05:48:23 15° NNW visible
05 Dec 6.1 17:06:45 10° WSW 17:08:50 12° W 17:10:54 10° WNW visible
06 Dec 4.9 05:09:37 10° N 05:10:48 17° N 05:10:48 17° N visible
07 Dec 5.2 04:32:27 10° NNE 04:33:13 15° NNE 04:33:13 15° NNE visible
07 Dec 5.0 06:13:12 10° NNW 06:13:24 11° NNW 06:13:24 11° NNW visible
08 Dec 5.0 05:35:02 10° N 05:35:50 14° NNW 05:35:50 14° NNW visible
09 Dec 5.2 04:57:34 10° N 04:58:16 14° N 04:58:16 14° N visible
